This demonstration page uses our WeatherBlox Daily Observations layout. Learn more.

Left ArrowRight Arrow

Hourly Observations for April 6, 2018

Temp ( °F °C ) Dew Point ( °F °C ) Humidity (%) Winds ( mph kmh ) Pressure ( in mb ) Visibility ( mi km ) Precip ( " mm )
12:53 am 00:53 Cloudy 40 4.4 30 -1.1 68 68 NNE 21 33 30.06 1018 10 16 0.00 0.00
1:53 am 01:53 Cloudy with Light Snow 37 2.8 31 -0.6 79 79 NNE 18 30 30.11 1020 10 16 0.00 0.03
2:06 am 02:06 Windy with Snow Likely 35 1.7 31 -0.6 85 85 NNE 20 31 30.18 1022 5 8 0.00 0.03
2:19 am 02:19 Windy with Snow Likely 33 0.6 31 -0.6 92 92 NNE 21 33 30.18 1022 2 3 0.01 0.25
2:24 am 02:24 Cloudy with Light Snow 33 0.6 31 -0.6 92 92 NNE 18 30 30.18 1022 1 2 0.03 0.76
2:32 am 02:32 Cloudy with Light Snow 32 0 32 0 100 100 NNE 15 24 30.18 1022 1 2 0.00 0.00
2:45 am 02:45 Windy with Snow Likely 32 0 31 -0.6 96 96 NNE 20 31 30.18 1022 2 3 0.05 1.27
2:49 am 02:49 Cloudy with Light Snow 32 0 30 -1 93 93 NE 18 30 30.18 1022 3 5 0.05 1.27
2:53 am 02:53 Cloudy with Light Snow 32 0 31 -0.6 96 96 NE 15 24 30.11 1020 4 6 0.05 1.27
3:02 am 03:02 Cloudy with Light Wintry Mix 32 0 30 -1 93 93 NNE 16 26 30.18 1022 6 10 0.00 0.00
3:45 am 03:45 Windy with Snow Likely 30 -1.1 26 -3.3 85 85 NNE 21 33 30.21 1023 6 10 0.00 0.03
3:53 am 03:53 Windy with Snow Likely 30 -1.1 27 -2.8 88 88 NNE 21 33 30.11 1020 4 6 0.00 0.03
3:58 am 03:58 Cloudy with Light Snow 28 -2 27 -3 93 93 NNE 18 30 30.21 1023 3 5 0.00 0.00
4:10 am 04:10 Cloudy with Light Snow 28 -2 27 -3 93 93 NE 18 30 30.21 1023 8 13 0.00 0.00
4:53 am 04:53 Mostly Clear 29 -1.7 25 -3.9 85 85 NNE 13 20 30.12 1020 10 16 0.00 0.03
5:53 am 05:53 Cloudy 28 -2.2 25 -3.9 88 88 NNE 15 24 30.15 1021 10 16 0.00 0.00
6:53 am 06:53 Cloudy 28 -2.2 25 -3.9 88 88 NNE 14 22 30.16 1022 10 16 0.00 0.00
7:46 am 07:46 Cloudy 28 -2 27 -3 93 93 NNE 14 22 30.24 1024 8 13 0.00 0.00
7:53 am 07:53 Cloudy 28 -2.2 26 -3.3 92 92 NNE 14 22 30.19 1023 9 14 0.00 0.00
8:48 am 08:48 Cloudy with Mist and Fog 28 -2 27 -3 93 93 NNE 18 30 30.27 1025 5 8 0.00 0.00
8:53 am 08:53 Cloudy with Mist and Fog 28 -2.2 26 -3.3 92 92 NNE 20 31 30.21 1023 5 8 0.00 0.00
9:29 am 09:29 Cloudy with Light Snow 28 -2.2 25 -3.9 88 88 NNE 18 30 30.27 1025 3 5 0.00 0.03
9:53 am 09:53 Windy with Snow Likely 28 -2.2 25 -3.9 88 88 NNE 23 37 30.25 1024 7 11 0.00 0.03
10:27 am 10:27 Windy with Snow Likely 26 -3.3 23 -5 88 88 NNE 29 46 30.33 1027 6 10 0.00 0.03
10:53 am 10:53 Cloudy 25 -3.9 22 -5.6 88 88 NNE 24 39 30.28 1025 10 16 0.00 0.03
11:12 am 11:12 Cloudy 25 -4 19 -7 80 80 N 28 44 30.36 1028 10 16 0.00 0.00
11:33 am 11:33 Cloudy 24 -4.4 18 -7.8 77 77 NNE 26 43 30.36 1028 10 16 0.00 0.00
11:49 am 11:49 Cloudy 25 -4 18 -8 74 74 NNE 22 35 30.39 1029 10 16 0.00 0.00
11:53 am 11:53 Cloudy 24 -4.4 19 -7.2 81 81 NNE 23 37 30.32 1027 10 16 0.00 0.00
12:22 pm 12:22 Windy with Snow Likely 21 -6 18 -8 86 86 NNE 26 43 30.39 1029 2 3 0.00 0.00
12:48 pm 12:48 Windy with Snow Likely 21 -6 18 -8 86 86 NNE 26 43 30.39 1029 2 3 0.00 0.00
12:53 pm 12:53 Windy with Snow Likely 22 -5.6 17 -8.3 82 82 NNE 25 41 30.35 1028 3 5 0.00 0.03
1:08 pm 13:08 Windy with Snow Likely 21 -6 18 -8 86 86 N 23 37 30.39 1029 2 3 0.00 0.00
1:25 pm 13:25 Windy with Snow Likely 21 -6.1 16 -8.9 81 81 N 24 39 30.45 1031 3 5 0.00 0.03
1:53 pm 13:53 Windy with Snow Likely 21 -6.1 16 -8.9 81 81 N 23 37 30.36 1028 6 10 0.00 0.03
2:29 pm 14:29 Windy with Snow Likely 20 -6.7 15 -9.4 81 81 N 22 35 30.45 1031 3 4 0.00 0.03
2:43 pm 14:43 Cloudy with Light Snow 20 -6.7 16 -8.9 85 85 N 18 30 30.45 1031 1 2 0.00 0.03
2:45 pm 14:45 Cloudy with Light Snow 20 -6.7 16 -8.9 85 85 NNE 18 30 30.45 1031 1 1 0.00 0.03
2:53 pm 14:53 Cloudy with Snow 19 -7.2 16 -8.9 88 88 NNE 22 35 30.37 1028 1 1 0.00 0.03
3:06 pm 15:06 Cloudy with Light Snow 19 -7.2 15 -9.4 84 84 NNE 17 28 30.45 1031 1 2 0.00 0.03
3:22 pm 15:22 Windy with Snow Likely 18 -8 14 -10 86 86 N 25 41 30.45 1031 1 2 0.00 0.00
3:42 pm 15:42 Windy with Snow Likely 18 -7.8 13 -10.6 81 81 N 21 33 30.45 1031 3 5 0.00 0.03
3:53 pm 15:53 Cloudy with Light Snow 18 -7.8 13 -10.6 81 81 N 18 30 30.37 1029 5 8 0.00 0.03
4:04 pm 16:04 Cloudy with Light Snow 18 -8 10 -12 73 73 N 18 30 30.45 1031 5 8 0.00 0.00
4:17 pm 16:17 Cloudy with Light Snow 19 -7.2 13 -10.6 77 77 N 17 28 30.45 1031 3 4 0.00 0.03
4:25 pm 16:25 Cloudy with Light Snow 18 -7.8 13 -10.6 81 81 N 18 30 30.45 1031 7 11 0.00 0.03
4:53 pm 16:53 Cloudy 19 -7.2 10 -12.2 68 68 N 15 24 30.37 1028 10 16 0.00 0.03
5:53 pm 17:53 Cloudy 20 -6.7 8 -13.3 60 60 N 18 30 30.37 1028 10 16 0.00 0.00
6:53 pm 18:53 Sunny 20 -6.7 8 -13.3 60 60 N 14 22 30.37 1028 10 16 0.00 0.00
7:53 pm 19:53 Partly Cloudy 20 -6.7 9 -12.8 62 62 N 15 24 30.37 1029 10 16 0.00 0.00
8:53 pm 20:53 Cloudy 20 -6.7 10 -12.2 65 65 N 13 20 30.39 1029 10 16 0.00 0.00
9:53 pm 21:53 Clear 20 -6.7 11 -11.7 68 68 N 10 17 30.40 1029 10 16 0.00 0.00
10:53 pm 22:53 Clear 19 -7.2 11 -11.7 71 71 N 10 17 30.39 1029 10 16 0.00 0.00
11:53 pm 23:53 Clear 19 -7.2 12 -11.1 74 74 NNW 10 17 30.39 1029 10 16 0.00 0.00

Powered by AerisWeather